Location: Castrojimeno
(41.3966°N, 3.8473°W)
Time: 11:08:17
(UTC+00:00)

Spot 4 - Pass Details

Date: 15 May 2026
Orbit: 698 x 714 km, 98.2° (Epoch: 8 June)

Event Time Altitude Azimuth Distance (km) Brightness Sun altitude
Exits shadow 23:36:12 58° 359° (N) 820 4.3 -29.0°
Drops below altitude 10° 23:40:05 10° 349° (N) 2,188 7.3 -29.1°
Sets 23:42:21 0° 348° (NNW) 3,114 8.4 -29.2°
